Time,TemperatureF,DewpointF,PressureIn,WindDirection,WindDirectionDegrees,WindSpeedMPH,WindSpeedGustMPH,Humidity,HourlyPrecipIn,Conditions,Clouds,dailyrainin,SoftwareType,DateUTC
2013-03-21 00:05:00,49.5,41.9,30.00,ENE,72,0.0,0.0,75,0.00,,,0.00,Wunderground v.1.15,2013-03-21 05:05:00,
2013-03-21 00:10:00,49.5,42.2,30.00,ENE,72,0.0,0.0,76,0.00,,,0.00,Wunderground v.1.15,2013-03-21 05:10:00,
2013-03-21 00:20:00,49.4,41.8,30.00,ENE,72,0.0,0.0,75,0.00,,,0.00,Wunderground v.1.15,2013-03-21 05:20:00,
2013-03-21 00:25:00,49.4,42.1,29.99,ENE,72,0.0,0.0,76,0.00,,,0.00,Wunderground v.1.15,2013-03-21 05:25:00,
2013-03-21 00:35:00,49.2,42.0,29.99,ENE,72,0.0,0.0,76,0.00,,,0.00,Wunderground v.1.15,2013-03-21 05:35:00,
2013-03-21 00:40:00,49.2,42.3,29.99,ENE,72,0.0,0.0,77,0.00,,,0.00,Wunderground v.1.15,2013-03-21 05:40:00,
2013-03-21 00:50:00,49.2,41.6,29.98,ENE,72,0.0,0.0,75,0.00,,,0.00,Wunderground v.1.15,2013-03-21 05:50:00,
2013-03-21 00:55:00,49.2,42.0,29.98,ENE,72,0.0,0.0,76,0.00,,,0.00,Wunderground v.1.15,2013-03-21 05:55:00,
2013-03-21 01:05:00,49.1,42.2,29.98,ENE,72,0.0,0.0,77,0.00,,,0.00,Wunderground v.1.15,2013-03-21 06:05:00,
2013-03-21 01:10:00,48.9,42.0,29.97,ENE,72,0.0,0.0,77,0.00,,,0.00,Wunderground v.1.15,2013-03-21 06:10:00,
2013-03-21 01:20:00,48.9,42.0,29.97,ENE,72,0.0,0.0,77,0.00,,,0.00,Wunderground v.1.15,2013-03-21 06:20:00,
2013-03-21 01:25:00,48.9,42.0,29.97,ENE,72,0.0,0.0,77,0.00,,,0.00,Wunderground v.1.15,2013-03-21 06:25:00,
2013-03-21 01:35:00,49.1,42.2,29.96,ENE,72,0.0,0.0,77,0.00,,,0.00,Wunderground v.1.15,2013-03-21 06:35:00,
2013-03-21 01:40:00,49.2,42.6,29.96,ENE,72,0.0,0.0,78,0.00,,,0.00,Wunderground v.1.15,2013-03-21 06:40:00,
2013-03-21 01:50:00,49.5,42.6,29.96,ENE,72,0.0,0.0,77,0.00,,,0.00,Wunderground v.1.15,2013-03-21 06:50:00,
2013-03-21 01:55:00,49.8,41.5,29.96,ENE,76,0.0,0.0,73,0.00,,,0.00,Wunderground v.1.15,2013-03-21 06:55:00,
2013-03-21 02:05:00,51.4,38.8,29.96,ENE,78,0.0,2.0,62,0.00,,,0.00,Wunderground v.1.15,2013-03-21 07:05:00,
2013-03-21 02:10:00,52.5,39.4,29.95,ENE,78,1.0,1.0,61,0.00,,,0.00,Wunderground v.1.15,2013-03-21 07:10:00,
2013-03-21 02:20:00,53.2,38.4,29.95,East,79,0.0,0.0,57,0.00,,,0.00,Wunderground v.1.15,2013-03-21 07:20:00,
2013-03-21 02:25:00,53.9,38.6,29.95,East,79,0.0,0.0,56,0.00,,,0.00,Wunderground v.1.15,2013-03-21 07:25:00,
2013-03-21 02:35:00,54.8,37.5,29.93,East,96,1.0,2.0,52,0.00,,,0.00,Wunderground v.1.15,2013-03-21 07:35:00,
2013-03-21 02:40:00,55.1,37.8,29.93,ESE,104,1.0,1.0,52,0.00,,,0.00,Wunderground v.1.15,2013-03-21 07:40:00,
2013-03-21 02:50:00,55.4,38.5,29.93,ESE,123,1.0,3.0,53,0.00,,,0.00,Wunderground v.1.15,2013-03-21 07:50:00,
2013-03-21 02:55:00,55.3,38.4,29.93,SE,124,1.0,3.0,53,0.00,,,0.00,Wunderground v.1.15,2013-03-21 07:55:00,
2013-03-21 03:05:00,55.1,39.2,29.93,SE,126,0.0,0.0,55,0.00,,,0.00,Wunderground v.1.15,2013-03-21 08:05:00,
2013-03-21 03:10:00,55.0,39.1,29.93,SE,126,0.0,0.0,55,0.00,,,0.00,Wunderground v.1.15,2013-03-21 08:10:00,
2013-03-21 03:20:00,54.8,39.4,29.92,SE,127,0.0,0.0,56,0.00,,,0.00,Wunderground v.1.15,2013-03-21 08:20:00,
2013-03-21 03:25:00,54.8,39.4,29.92,SE,131,1.0,1.0,56,0.00,,,0.00,Wunderground v.1.15,2013-03-21 08:25:00,
2013-03-21 03:35:00,54.8,40.3,29.91,SSE,162,1.0,6.0,58,0.00,,,0.00,Wunderground v.1.15,2013-03-21 08:35:00,
2013-03-21 03:40:00,54.8,40.3,29.91,SSE,161,1.0,1.0,58,0.00,,,0.00,Wunderground v.1.15,2013-03-21 08:40:00,
2013-03-21 03:50:00,54.7,40.6,29.91,South,172,1.0,1.0,59,0.00,,,0.00,Wunderground v.1.15,2013-03-21 08:50:00,
2013-03-21 03:55:00,54.5,40.9,29.90,South,172,0.0,1.0,60,0.00,,,0.00,Wunderground v.1.15,2013-03-21 08:55:00,
2013-03-21 04:05:00,53.9,40.8,29.90,South,172,0.0,0.0,61,0.00,,,0.00,Wunderground v.1.15,2013-03-21 09:05:00,
2013-03-21 04:10:00,53.6,40.9,29.90,South,172,0.0,0.0,62,0.00,,,0.00,Wunderground v.1.15,2013-03-21 09:10:00,
2013-03-21 04:20:00,53.2,42.1,29.89,South,171,0.0,0.0,66,0.00,,,0.00,Wunderground v.1.15,2013-03-21 09:20:00,
2013-03-21 04:25:00,53.2,42.5,29.89,South,171,0.0,0.0,67,0.00,,,0.00,Wunderground v.1.15,2013-03-21 09:25:00,
2013-03-21 04:35:00,53.2,42.9,29.88,South,169,0.0,0.0,68,0.00,,,0.00,Wunderground v.1.15,2013-03-21 09:35:00,
2013-03-21 04:40:00,53.2,42.9,29.88,South,169,1.0,5.0,68,0.00,,,0.00,Wunderground v.1.15,2013-03-21 09:40:00,
2013-03-21 04:50:00,53.3,42.6,29.87,South,175,1.0,1.0,67,0.00,,,0.00,Wunderground v.1.15,2013-03-21 09:50:00,
2013-03-21 04:55:00,53.6,42.1,29.88,South,176,2.0,3.0,65,0.00,,,0.00,Wunderground v.1.15,2013-03-21 09:55:00,
2013-03-21 05:05:00,54.2,42.3,29.88,South,182,3.0,3.0,64,0.00,,,0.00,Wunderground v.1.15,2013-03-21 10:05:00,
2013-03-21 05:10:00,54.5,42.2,29.88,South,175,3.0,3.0,63,0.00,,,0.00,Wunderground v.1.15,2013-03-21 10:10:00,
2013-03-21 05:20:00,54.5,42.2,29.88,South,185,3.0,3.0,63,0.00,,,0.00,Wunderground v.1.15,2013-03-21 10:20:00,
2013-03-21 05:25:00,54.4,42.1,29.88,South,169,3.0,3.0,63,0.00,,,0.00,Wunderground v.1.15,2013-03-21 10:25:00,
2013-03-21 05:35:00,54.1,42.2,29.87,South,181,2.0,5.0,64,0.00,,,0.00,Wunderground v.1.15,2013-03-21 10:35:00,
2013-03-21 05:40:00,53.9,42.0,29.87,South,178,3.0,3.0,64,0.00,,,0.00,Wunderground v.1.15,2013-03-21 10:40:00,
2013-03-21 05:50:00,53.6,42.1,29.87,South,178,2.0,2.0,65,0.00,,,0.00,Wunderground v.1.15,2013-03-21 10:50:00,
2013-03-21 05:55:00,53.5,42.4,29.87,South,178,2.0,2.0,66,0.00,,,0.00,Wunderground v.1.15,2013-03-21 10:55:00,
2013-03-21 06:05:00,53.2,41.7,29.87,South,176,3.0,6.0,65,0.00,,,0.00,Wunderground v.1.15,2013-03-21 11:05:00,
2013-03-21 06:10:00,53.1,42.0,29.86,South,172,3.0,3.0,66,0.00,,,0.00,Wunderground v.1.15,2013-03-21 11:10:00,
2013-03-21 06:20:00,52.8,41.7,29.86,South,175,2.0,2.0,66,0.00,,,0.00,Wunderground v.1.15,2013-03-21 11:20:00,
2013-03-21 06:25:00,52.8,41.4,29.86,South,176,2.0,2.0,65,0.00,,,0.00,Wunderground v.1.15,2013-03-21 11:25:00,
2013-03-21 06:35:00,52.6,41.2,29.86,South,175,1.0,2.0,65,0.00,,,0.00,Wunderground v.1.15,2013-03-21 11:35:00,
2013-03-21 06:40:00,52.6,41.6,29.86,South,182,2.0,2.0,66,0.00,,,0.00,Wunderground v.1.15,2013-03-21 11:40:00,
2013-03-21 06:50:00,52.8,41.7,29.86,South,172,2.0,10.0,66,0.00,,,0.00,Wunderground v.1.15,2013-03-21 11:50:00,
2013-03-21 06:55:00,52.9,42.6,29.86,South,176,3.0,10.0,68,0.00,,,0.00,Wunderground v.1.15,2013-03-21 11:55:00,
2013-03-21 07:05:00,53.1,42.8,29.86,SSE,161,4.0,5.0,68,0.00,,,0.00,Wunderground v.1.15,2013-03-21 12:05:00,
2013-03-21 07:10:00,53.1,43.6,29.86,South,185,4.0,5.0,70,0.00,,,0.00,Wunderground v.1.15,2013-03-21 12:10:00,
2013-03-21 07:20:00,53.1,45.0,29.86,South,174,5.0,5.0,74,0.00,,,0.00,Wunderground v.1.15,2013-03-21 12:20:00,
2013-03-21 07:25:00,53.1,45.4,29.86,South,189,5.0,5.0,75,0.00,,,0.00,Wunderground v.1.15,2013-03-21 12:25:00,
2013-03-21 07:35:00,53.3,46.3,29.86,SSW,202,4.0,10.0,77,0.00,,,0.00,Wunderground v.1.15,2013-03-21 12:35:00,
2013-03-21 07:40:00,53.5,47.1,29.86,SSE,168,4.0,4.0,79,0.00,,,0.00,Wunderground v.1.15,2013-03-21 12:40:00,
2013-03-21 07:50:00,53.6,47.9,29.86,SSE,164,4.0,4.0,81,0.00,,,0.00,Wunderground v.1.15,2013-03-21 12:50:00,
2013-03-21 07:55:00,53.8,48.4,29.86,South,172,4.0,4.0,82,0.00,,,0.00,Wunderground v.1.15,2013-03-21 12:55:00,
2013-03-21 08:05:00,54.1,49.4,29.86,South,184,4.0,6.0,84,0.00,,,0.00,Wunderground v.1.15,2013-03-21 13:05:00,
2013-03-21 08:10:00,54.4,49.7,29.86,South,176,4.0,5.0,84,0.00,,,0.00,Wunderground v.1.15,2013-03-21 13:10:00,
2013-03-21 08:20:00,55.0,50.3,29.86,South,184,4.0,4.0,84,0.00,,,0.00,Wunderground v.1.15,2013-03-21 13:20:00,
2013-03-21 08:25:00,55.3,50.2,29.86,South,175,5.0,5.0,83,0.00,,,0.00,Wunderground v.1.15,2013-03-21 13:25:00,
2013-03-21 08:35:00,56.2,51.1,29.85,SSE,160,5.0,14.0,83,0.00,,,0.00,Wunderground v.1.15,2013-03-21 13:35:00,
2013-03-21 08:40:00,56.5,51.1,29.85,SSW,196,5.0,6.0,82,0.00,,,0.00,Wunderground v.1.15,2013-03-21 13:40:00,
2013-03-21 08:50:00,57.2,51.4,29.85,SSE,158,5.0,9.0,81,0.00,,,0.00,Wunderground v.1.15,2013-03-21 13:50:00,
2013-03-21 08:55:00,57.5,51.7,29.86,SSE,155,6.0,9.0,81,0.00,,,0.00,Wunderground v.1.15,2013-03-21 13:55:00,
2013-03-21 09:05:00,58.0,51.9,29.86,South,178,6.0,8.0,80,0.00,,,0.00,Wunderground v.1.15,2013-03-21 14:05:00,
2013-03-21 09:10:00,58.4,51.9,29.86,ESE,119,7.0,11.0,79,0.00,,,0.00,Wunderground v.1.15,2013-03-21 14:10:00,
2013-03-21 09:20:00,59.0,52.1,29.85,South,171,8.0,9.0,78,0.00,,,0.00,Wunderground v.1.15,2013-03-21 14:20:00,
2013-03-21 09:25:00,59.3,52.1,29.85,South,186,7.0,10.0,77,0.00,,,0.00,Wunderground v.1.15,2013-03-21 14:25:00,
2013-03-21 09:35:00,59.8,52.6,29.85,SSW,200,8.0,14.0,77,0.00,,,0.00,Wunderground v.1.15,2013-03-21 14:35:00,
2013-03-21 09:40:00,59.8,52.6,29.84,SSE,162,9.0,10.0,77,0.00,,,0.00,Wunderground v.1.15,2013-03-21 14:40:00,
2013-03-21 09:50:00,60.1,52.5,29.84,SSE,150,9.0,9.0,76,0.00,,,0.00,Wunderground v.1.15,2013-03-21 14:50:00,
2013-03-21 09:55:00,60.7,52.4,29.83,SE,131,9.0,9.0,74,0.00,,,0.00,Wunderground v.1.15,2013-03-21 14:55:00,
2013-03-21 10:05:00,61.6,53.2,29.84,SSE,168,9.0,14.0,74,0.00,,,0.00,Wunderground v.1.15,2013-03-21 15:05:00,
2013-03-21 10:10:00,61.8,53.4,29.84,South,189,8.0,14.0,74,0.00,,,0.00,Wunderground v.1.15,2013-03-21 15:10:00,
2013-03-21 10:20:00,61.6,53.2,29.84,SSW,196,7.0,8.0,74,0.00,,,0.00,Wunderground v.1.15,2013-03-21 15:20:00,
2013-03-21 10:25:00,61.5,53.1,29.84,SSW,209,8.0,11.0,74,0.00,,,0.00,Wunderground v.1.15,2013-03-21 15:25:00,
2013-03-21 10:35:00,61.6,53.2,29.83,SSE,154,8.0,8.0,74,0.00,,,0.00,Wunderground v.1.15,2013-03-21 15:35:00,
2013-03-21 10:40:00,61.6,53.2,29.83,SSE,154,8.0,8.0,74,0.00,,,0.00,Wunderground v.1.15,2013-03-21 15:40:00,
2013-03-21 10:50:00,61.8,53.4,29.83,WSW,240,8.0,8.0,74,0.00,,,0.00,Wunderground v.1.15,2013-03-21 15:50:00,
2013-03-21 10:55:00,62.1,53.7,29.83,SSE,155,8.0,8.0,74,0.00,,,0.00,Wunderground v.1.15,2013-03-21 15:55:00,
2013-03-21 11:05:00,62.9,53.4,29.82,SSW,206,6.0,7.0,71,0.00,,,0.00,Wunderground v.1.15,2013-03-21 16:05:00,
2013-03-21 11:10:00,63.5,53.9,29.81,ESE,102,6.0,6.0,71,0.00,,,0.00,Wunderground v.1.15,2013-03-21 16:10:00,
2013-03-21 11:20:00,64.8,54.0,29.81,ESE,113,8.0,8.0,68,0.00,,,0.00,Wunderground v.1.15,2013-03-21 16:20:00,
2013-03-21 11:25:00,64.8,54.0,29.81,SSE,161,8.0,14.0,68,0.00,,,0.00,Wunderground v.1.15,2013-03-21 16:25:00,
2013-03-21 11:35:00,65.3,54.5,29.81,SSE,152,7.0,8.0,68,0.00,,,0.00,Wunderground v.1.15,2013-03-21 16:35:00,
2013-03-21 11:40:00,66.0,54.3,29.80,SSE,154,7.0,11.0,66,0.00,,,0.00,Wunderground v.1.15,2013-03-21 16:40:00,
2013-03-21 11:50:00,66.1,54.0,29.79,SW,222,7.0,10.0,65,0.00,,,0.00,Wunderground v.1.15,2013-03-21 16:50:00,
2013-03-21 11:55:00,66.6,54.0,29.79,SSE,167,7.0,10.0,64,0.00,,,0.00,Wunderground v.1.15,2013-03-21 16:55:00,
2013-03-21 12:05:00,67.3,53.8,29.79,SSW,193,9.0,9.0,62,0.00,,,0.00,Wunderground v.1.15,2013-03-21 17:05:00,
2013-03-21 12:10:00,67.6,53.7,29.78,SSW,195,9.0,9.0,61,0.00,,,0.00,Wunderground v.1.15,2013-03-21 17:10:00,
2013-03-21 12:20:00,67.9,53.5,29.77,SSE,151,9.0,9.0,60,0.00,,,0.00,Wunderground v.1.15,2013-03-21 17:20:00,
2013-03-21 12:25:00,67.9,54.0,29.77,SSE,147,9.0,10.0,61,0.00,,,0.00,Wunderground v.1.15,2013-03-21 17:25:00,
2013-03-21 12:35:00,68.3,54.3,29.77,SSE,160,8.0,8.0,61,0.00,,,0.00,Wunderground v.1.15,2013-03-21 17:35:00,
2013-03-21 12:40:00,68.8,53.9,29.76,South,169,7.0,12.0,59,0.00,,,0.00,Wunderground v.1.15,2013-03-21 17:40:00,
2013-03-21 12:50:00,69.1,54.2,29.75,South,184,6.0,8.0,59,0.00,,,0.00,Wunderground v.1.15,2013-03-21 17:50:00,
2013-03-21 12:55:00,70.1,54.6,29.75,SSE,168,7.0,8.0,58,0.00,,,0.00,Wunderground v.1.15,2013-03-21 17:55:00,
2013-03-21 13:05:00,70.6,54.6,29.74,South,184,7.0,7.0,57,0.00,,,0.00,Wunderground v.1.15,2013-03-21 18:05:00,
2013-03-21 13:10:00,69.6,54.2,29.74,South,169,7.0,10.0,58,0.00,,,0.00,Wunderground v.1.15,2013-03-21 18:10:00,
2013-03-21 13:20:00,68.6,54.2,29.73,South,174,7.0,8.0,60,0.00,,,0.00,Wunderground v.1.15,2013-03-21 18:20:00,
2013-03-21 13:25:00,68.9,54.0,29.73,SSE,164,7.0,20.0,59,0.00,,,0.00,Wunderground v.1.15,2013-03-21 18:25:00,
2013-03-21 13:35:00,69.4,54.4,29.72,SSW,200,8.0,11.0,59,0.00,,,0.00,Wunderground v.1.15,2013-03-21 18:35:00,
2013-03-21 13:40:00,69.6,54.6,29.71,South,172,6.0,7.0,59,0.00,,,0.00,Wunderground v.1.15,2013-03-21 18:40:00,
2013-03-21 13:50:00,69.8,54.4,29.71,SSE,151,5.0,5.0,58,0.00,,,0.00,Wunderground v.1.15,2013-03-21 18:50:00,
2013-03-21 13:55:00,70.1,54.6,29.71,ESE,103,5.0,5.0,58,0.00,,,0.00,Wunderground v.1.15,2013-03-21 18:55:00,
2013-03-21 14:05:00,71.1,54.1,29.69,SSE,165,6.0,6.0,55,0.00,,,0.00,Wunderground v.1.15,2013-03-21 19:05:00,
2013-03-21 14:10:00,71.3,54.3,29.69,SSE,167,7.0,8.0,55,0.00,,,0.00,Wunderground v.1.15,2013-03-21 19:10:00,
2013-03-21 14:20:00,72.1,53.5,29.67,SSE,168,7.0,7.0,52,0.00,,,0.00,Wunderground v.1.15,2013-03-21 19:20:00,
2013-03-21 14:25:00,72.7,55.1,29.67,WSW,237,4.0,11.0,54,0.00,,,0.00,Wunderground v.1.15,2013-03-21 19:25:00,
2013-03-21 14:35:00,72.8,54.7,29.66,SSE,165,4.0,4.0,53,0.00,,,0.00,Wunderground v.1.15,2013-03-21 19:35:00,
2013-03-21 14:40:00,72.5,54.4,29.66,SSW,205,5.0,13.0,53,0.00,,,0.00,Wunderground v.1.15,2013-03-21 19:40:00,
2013-03-21 14:50:00,72.8,54.7,29.66,SSW,213,8.0,10.0,53,0.00,,,0.00,Wunderground v.1.15,2013-03-21 19:50:00,
2013-03-21 14:55:00,73.0,54.9,29.65,SSW,195,9.0,10.0,53,0.00,,,0.00,Wunderground v.1.15,2013-03-21 19:55:00,
2013-03-21 15:05:00,72.7,55.1,29.65,SSW,205,8.0,8.0,54,0.00,,,0.00,Wunderground v.1.15,2013-03-21 20:05:00,
2013-03-21 15:10:00,72.1,55.0,29.64,SSW,209,7.0,7.0,55,0.00,,,0.00,Wunderground v.1.15,2013-03-21 20:10:00,
2013-03-21 15:20:00,72.0,55.4,29.64,SSE,168,5.0,5.0,56,0.00,,,0.00,Wunderground v.1.15,2013-03-21 20:20:00,
2013-03-21 15:25:00,72.0,55.4,29.64,South,174,5.0,5.0,56,0.00,,,0.00,Wunderground v.1.15,2013-03-21 20:25:00,
2013-03-21 15:35:00,72.0,55.4,29.63,South,175,4.0,16.0,56,0.00,,,0.00,Wunderground v.1.15,2013-03-21 20:35:00,
2013-03-21 15:40:00,72.3,55.7,29.63,SSE,162,5.0,5.0,56,0.00,,,0.00,Wunderground v.1.15,2013-03-21 20:40:00,
2013-03-21 15:50:00,73.2,56.1,29.62,SW,224,7.0,16.0,55,0.00,,,0.00,Wunderground v.1.15,2013-03-21 20:50:00,
2013-03-21 15:55:00,72.8,56.2,29.62,SSW,193,9.0,16.0,56,0.00,,,0.00,Wunderground v.1.15,2013-03-21 20:55:00,
2013-03-21 16:05:00,73.9,56.2,29.61,SW,215,6.0,11.0,54,0.00,,,0.00,Wunderground v.1.15,2013-03-21 21:05:00,
2013-03-21 16:10:00,73.5,56.3,29.61,South,175,7.0,7.0,55,0.00,,,0.00,Wunderground v.1.15,2013-03-21 21:10:00,
2013-03-21 16:20:00,72.7,56.1,29.61,SSE,168,8.0,8.0,56,0.00,,,0.00,Wunderground v.1.15,2013-03-21 21:20:00,
2013-03-21 16:25:00,72.1,56.0,29.60,ESE,107,7.0,10.0,57,0.00,,,0.00,Wunderground v.1.15,2013-03-21 21:25:00,
2013-03-21 16:35:00,72.7,56.1,29.60,South,186,7.0,9.0,56,0.00,,,0.00,Wunderground v.1.15,2013-03-21 21:35:00,
2013-03-21 16:40:00,73.0,56.4,29.59,SW,219,6.0,11.0,56,0.00,,,0.00,Wunderground v.1.15,2013-03-21 21:40:00,
2013-03-21 16:50:00,73.2,56.6,29.59,South,175,6.0,8.0,56,0.00,,,0.00,Wunderground v.1.15,2013-03-21 21:50:00,
2013-03-21 16:55:00,72.8,56.2,29.59,South,171,7.0,8.0,56,0.00,,,0.00,Wunderground v.1.15,2013-03-21 21:55:00,
2013-03-21 17:05:00,73.3,56.2,29.58,South,185,5.0,7.0,55,0.00,,,0.00,Wunderground v.1.15,2013-03-21 22:05:00,
2013-03-21 17:10:00,73.7,56.0,29.58,South,186,5.0,8.0,54,0.00,,,0.00,Wunderground v.1.15,2013-03-21 22:10:00,
2013-03-21 17:20:00,73.5,56.3,29.58,SSW,206,7.0,10.0,55,0.00,,,0.00,Wunderground v.1.15,2013-03-21 22:20:00,
2013-03-21 17:25:00,72.7,56.1,29.58,SSW,202,6.0,10.0,56,0.00,,,0.00,Wunderground v.1.15,2013-03-21 22:25:00,
2013-03-21 17:35:00,72.1,56.0,29.58,SSE,168,5.0,13.0,57,0.00,,,0.00,Wunderground v.1.15,2013-03-21 22:35:00,
2013-03-21 17:40:00,72.5,56.4,29.58,SE,134,4.0,12.0,57,0.00,,,0.00,Wunderground v.1.15,2013-03-21 22:40:00,
2013-03-21 17:50:00,72.8,56.2,29.56,SSW,193,7.0,7.0,56,0.00,,,0.00,Wunderground v.1.15,2013-03-21 22:50:00,
2013-03-21 17:55:00,72.8,56.2,29.56,South,186,8.0,8.0,56,0.00,,,0.00,Wunderground v.1.15,2013-03-21 22:55:00,
2013-03-21 18:05:00,72.5,56.4,29.56,SSW,195,8.0,8.0,57,0.00,,,0.00,Wunderground v.1.15,2013-03-21 23:05:00,
2013-03-21 18:10:00,72.3,55.7,29.57,SSW,195,7.0,17.0,56,0.00,,,0.00,Wunderground v.1.15,2013-03-21 23:10:00,
2013-03-21 18:20:00,72.0,56.4,29.57,SSW,198,7.0,8.0,58,0.00,,,0.00,Wunderground v.1.15,2013-03-21 23:20:00,
2013-03-21 18:25:00,72.0,56.4,29.56,South,184,5.0,8.0,58,0.00,,,0.00,Wunderground v.1.15,2013-03-21 23:25:00,
2013-03-21 18:35:00,72.0,56.4,29.56,South,175,4.0,13.0,58,0.00,,,0.00,Wunderground v.1.15,2013-03-21 23:35:00,
2013-03-21 18:40:00,71.6,56.5,29.56,SSW,196,4.0,11.0,59,0.00,,,0.00,Wunderground v.1.15,2013-03-21 23:40:00,
2013-03-21 18:50:00,71.5,56.4,29.56,SE,145,4.0,14.0,59,0.00,,,0.00,Wunderground v.1.15,2013-03-21 23:50:00,
2013-03-21 18:55:00,71.3,56.7,29.56,SSW,198,4.0,14.0,60,0.00,,,0.00,Wunderground v.1.15,2013-03-21 23:55:00,
2013-03-21 19:05:00,70.9,56.8,29.56,SSE,161,6.0,6.0,61,0.00,,,0.00,Wunderground v.1.15,2013-03-22 00:05:00,
2013-03-21 19:10:00,70.8,57.1,29.56,South,182,5.0,8.0,62,0.00,,,0.00,Wunderground v.1.15,2013-03-22 00:10:00,
2013-03-21 19:20:00,70.4,56.8,29.56,SSE,157,4.0,4.0,62,0.00,,,0.00,Wunderground v.1.15,2013-03-22 00:20:00,
2013-03-21 19:25:00,70.1,56.5,29.56,South,176,4.0,4.0,62,0.00,,,0.00,Wunderground v.1.15,2013-03-22 00:25:00,
2013-03-21 19:35:00,69.6,57.3,29.56,SSW,198,4.0,6.0,65,0.00,,,0.00,Wunderground v.1.15,2013-03-22 00:35:00,
2013-03-21 19:40:00,69.4,57.1,29.57,SSW,199,4.0,4.0,65,0.00,,,0.00,Wunderground v.1.15,2013-03-22 00:40:00,
2013-03-21 19:50:00,69.1,57.3,29.58,South,175,3.0,3.0,66,0.00,,,0.00,Wunderground v.1.15,2013-03-22 00:50:00,
2013-03-21 19:55:00,68.8,57.0,29.59,South,176,1.0,3.0,66,0.00,,,0.00,Wunderground v.1.15,2013-03-22 00:55:00,
2013-03-21 20:05:00,68.4,57.0,29.59,South,172,2.0,2.0,67,0.00,,,0.00,Wunderground v.1.15,2013-03-22 01:05:00,
2013-03-21 20:10:00,68.3,57.3,29.59,South,172,1.0,1.0,68,0.00,,,0.00,Wunderground v.1.15,2013-03-22 01:10:00,
2013-03-21 20:20:00,68.1,57.1,29.58,South,169,3.0,3.0,68,0.00,,,0.00,Wunderground v.1.15,2013-03-22 01:20:00,
2013-03-21 20:25:00,67.9,56.9,29.58,South,174,3.0,3.0,68,0.00,,,0.00,Wunderground v.1.15,2013-03-22 01:25:00,
2013-03-21 20:35:00,67.6,57.1,29.58,South,174,2.0,2.0,69,0.00,,,0.00,Wunderground v.1.15,2013-03-22 01:35:00,
2013-03-21 20:40:00,67.4,56.9,29.58,South,174,2.0,2.0,69,0.00,,,0.00,Wunderground v.1.15,2013-03-22 01:40:00,
2013-03-21 20:50:00,67.1,57.0,29.59,SSE,154,2.0,4.0,70,0.00,,,0.00,Wunderground v.1.15,2013-03-22 01:50:00,
2013-03-21 20:55:00,66.9,56.8,29.59,SSE,162,4.0,5.0,70,0.00,,,0.00,Wunderground v.1.15,2013-03-22 01:55:00,
2013-03-21 21:05:00,66.9,57.2,29.59,SSE,155,2.0,6.0,71,0.00,,,0.00,Wunderground v.1.15,2013-03-22 02:05:00,
2013-03-21 21:10:00,66.8,57.1,29.59,SSE,162,2.0,3.0,71,0.00,,,0.00,Wunderground v.1.15,2013-03-22 02:10:00,
2013-03-21 21:20:00,66.6,56.9,29.59,SSE,157,3.0,3.0,71,0.00,,,0.00,Wunderground v.1.15,2013-03-22 02:20:00,
2013-03-21 21:25:00,66.4,57.1,29.59,SE,145,2.0,5.0,72,0.00,,,0.00,Wunderground v.1.15,2013-03-22 02:25:00,
2013-03-21 21:35:00,66.3,57.4,29.59,SSE,161,3.0,3.0,73,0.00,,,0.00,Wunderground v.1.15,2013-03-22 02:35:00,
2013-03-21 21:40:00,66.0,57.5,29.60,SE,126,2.0,6.0,74,0.00,,,0.00,Wunderground v.1.15,2013-03-22 02:40:00,
2013-03-21 21:50:00,65.6,57.5,29.59,SSE,154,2.0,2.0,75,0.00,,,0.00,Wunderground v.1.15,2013-03-22 02:50:00,
2013-03-21 21:55:00,65.5,57.7,29.59,SSE,151,4.0,4.0,76,0.00,,,0.00,Wunderground v.1.15,2013-03-22 02:55:00,
2013-03-21 22:05:00,65.2,57.4,29.60,SSE,158,2.0,3.0,76,0.00,,,0.00,Wunderground v.1.15,2013-03-22 03:05:00,
2013-03-21 22:10:00,65.0,57.6,29.60,South,171,3.0,10.0,77,0.00,,,0.00,Wunderground v.1.15,2013-03-22 03:10:00,
2013-03-21 22:20:00,64.7,57.7,29.59,ESE,120,2.0,3.0,78,0.00,,,0.00,Wunderground v.1.15,2013-03-22 03:20:00,
2013-03-21 22:25:00,64.3,57.6,29.60,SE,143,2.0,5.0,79,0.00,,,0.00,Wunderground v.1.15,2013-03-22 03:25:00,
2013-03-21 22:35:00,64.0,57.7,29.61,SSE,155,3.0,3.0,80,0.00,,,0.00,Wunderground v.1.15,2013-03-22 03:35:00,
2013-03-21 22:40:00,63.9,57.6,29.61,South,171,3.0,3.0,80,0.00,,,0.00,Wunderground v.1.15,2013-03-22 03:40:00,
2013-03-21 22:50:00,63.9,57.6,29.61,SSE,154,3.0,7.0,80,0.00,,,0.00,Wunderground v.1.15,2013-03-22 03:50:00,
2013-03-21 22:55:00,63.5,57.6,29.60,SSE,165,5.0,7.0,81,0.00,,,0.00,Wunderground v.1.15,2013-03-22 03:55:00,
2013-03-21 23:00:00,63.5,57.6,29.60,South,184,5.0,5.0,81,0.00,,,0.00,Wunderground v.1.15,2013-03-22 04:00:00,
2013-03-21 23:05:00,63.4,57.8,29.60,South,172,4.0,8.0,82,0.00,,,0.00,Wunderground v.1.15,2013-03-22 04:05:00,
2013-03-21 23:10:00,63.4,57.8,29.60,SE,144,4.0,8.0,82,0.00,,,0.00,Wunderground v.1.15,2013-03-22 04:10:00,
2013-03-21 23:20:00,63.2,57.9,29.59,South,178,4.0,4.0,83,0.00,,,0.00,Wunderground v.1.15,2013-03-22 04:20:00,
2013-03-21 23:25:00,63.1,57.9,29.60,SSE,162,4.0,4.0,83,0.00,,,0.00,Wunderground v.1.15,2013-03-22 04:25:00,
2013-03-21 23:35:00,63.2,58.3,29.60,SSE,165,3.0,4.0,84,0.00,,,0.00,Wunderground v.1.15,2013-03-22 04:35:00,
2013-03-21 23:40:00,63.4,58.5,29.59,SSE,168,4.0,6.0,84,0.00,,,0.00,Wunderground v.1.15,2013-03-22 04:40:00,
2013-03-21 23:50:00,63.5,58.6,29.59,South,175,5.0,19.0,84,0.00,,,0.00,Wunderground v.1.15,2013-03-22 04:50:00,
2013-03-21 23:55:00,63.7,58.8,29.59,SE,144,5.0,19.0,84,0.00,,,0.00,Wunderground v.1.15,2013-03-22 04:55:00,